Location: San Vito
(41.8833°N, 12.9833°E)
Time: 05:13:25
(UTC+00:00)

Lacrosse 5 - Pass Details

Date: 17 November 2019
Orbit: 715 x 724 km, 57.0° (Epoch: 30 November)

Event Time Altitude Azimuth Distance (km) Brightness Sun altitude
Exits shadow 04:42:40 17° 315° (NW) 1,786 3.4 -14.4°
Maximum altitude 04:44:21 20° 340° (NNW) 1,653 3.4 -14.0°
Drops below altitude 10° 04:48:01 10° 27° (NNE) 2,207 4.6 -13.4°
Sets 04:51:03 0° 45° (NE) 3,127 5.6 -12.8°
